Погода в Селе Станция-Бряндино

Россия / Ульяновская область     54°20′26″N   49°21′18″E
темп.,
°C
ветер,
м/с
пор.,
м/с
влажн.,
%
обл.,
%
осадки,
мм/ч
давл.,
гПа
погр.,
м
14 августа, вс
вс1401:00+18ссв37680 0.0 1020103
04:00+16св36780 0.0 102094
07:00+18ссв367714 0.0 1021178
10:00+23св454698 0.0 1021835
13:00+26св443814 0.0 10201769
16:00+27св54335 0.0 10201998
19:00+24св58388 0.0 1020380
22:00+17всв4105495 0.0 1021181
15 августа, пн
пн1501:00+16всв3859100 0.0 1022126
04:00+14в3462100 0.0 102268
07:00+16всв255869 0.0 1023133
10:00+23в3536100 0.0 1023877
13:00+26всв453397 0.0 10231770
16:00+27св453499 0.0 10222138
19:00+24св3544100 0.0 1022148
22:00+19св356116 0.0 102273
16 августа, вт
вт1601:00+17всв33651 0.0 102328
04:00+16всв33640 0.0 102435
07:00+18всв24610 0.0 1024120
10:00+24в34410 0.0 1024962
13:00+27в34320 0.0 10242116
16:00+28в34290 0.0 10232384
19:00+25в353918 0.0 1022130
22:00+19в485575 0.0 1023116
17 августа, ср
ср1701:00+17в4106035 0.0 1024172
04:00+16в47595 0.0 1023106
07:00+17в375534 0.0 1024160
10:00+24вюв343799 0.0 1023667
13:00+27в4429100 0.0 10221762
16:00+28вюв442583 0.0 10212035
19:00+25в2236100 0.0 102031
22:00+20всв3749100 0.0 1020101
18 августа, чт
чт1801:00+19в41155100 0.0 1020199
04:00+18в4860100 0.0 1020157
07:00+19в485466 0.0 1020196
10:00+25в5738100 0.0 1020660
13:00+29в332995 0.0 10191804
16:00+28вюв343399 0.0 1018663
19:00+26всв343892 0.0 101875
22:00+21всв41150100 0.0 1019203